Mayfld Grav Cnty AP, Mayfield, KY

12:21 PM CDT on September 16, 2019 (GMT -0500)
Mayfld Grav Cnty AP, Mayfield

Weather History for KM25 - May, 2019

Change the Weather History Date:

Wednesday, May 8, 2019

  Actual Average (WUND) Record (WUND)
Temperature  
Mean Temperature 74 °F -  
Max Temperature 86 °F - - (-1)
Min Temperature 62 °F - - (-1)
Cooling Degree Days 9    
Growing Degree Days 24 (Base 50)    
Moisture  
Dew Point 61 °F    
Average Humidity 64    
Maximum Humidity 88    
Minimum Humidity 43    
Precipitation  
Precipitation 0.00 in - - ()
Sea Level Pressure  
Sea Level Pressure 29.92 in    
Wind  
Wind Speed 6 mph (SSE)    
Max Wind Speed 14 mph    
Max Gust Speed 23 mph    
Visibility 10 miles    
Events      
Averages and records for this station are not official NWS values.
T = Trace of Precipitation, MM = Missing Value Source: NWS Daily Summary

Daily Weather History Graph

Daily Weather History Graph

Search for Another Location

Airport or City:

Astronomy

May. 08, 2019 Rise Set
Actual Time 5:53 AM CDT 7:48 PM CDT
Civil Twilight 5:24 AM CDT 8:17 PM CDT
Nautical Twilight 4:50 AM CDT 8:51 PM CDT
Astronomical Twilight 4:13 AM CDT 9:28 PM CDT
Moon 8:52 AM CDT (5/8) 11:46 PM CDT (5/8)
Length of Visible Light 14h 52m
Length of Day
13h 55m
Waxing Crescent, 16% of the Moon is Illuminated
May 8
Waxing Crescent
May 11
First Quarter
May 18
Full
May 26
Last Quarter
Jun 3
New

Hourly Weather History & Observations

Time (CDT) Temp. Heat Index Dew Point Humidity Pressure Visibility Wind Dir Wind Speed Gust Speed Precip Events Conditions
12:35 AM 68.0 °F - 59.0 °F 73% 30.03 in 10.0 mi SE 4.6 mph - N/A   Clear
12:55 AM 68.0 °F - 59.0 °F 73% 30.03 in 10.0 mi SSE 3.5 mph - N/A   Clear
1:15 AM 68.0 °F - 59.0 °F 73% 30.03 in 10.0 mi Calm Calm - N/A   Clear
1:35 AM 64.4 °F - 59.0 °F 83% 30.02 in 10.0 mi Calm Calm - N/A   Clear
1:55 AM 64.4 °F - 59.0 °F 83% 30.02 in 10.0 mi Calm Calm - N/A   Clear
2:15 AM 64.4 °F - 59.0 °F 83% 30.02 in 10.0 mi ESE 4.6 mph - N/A   Clear
2:35 AM 64.4 °F - 59.0 °F 83% 30.01 in 10.0 mi SE 4.6 mph - N/A   Clear
2:55 AM 64.4 °F - 59.0 °F 83% 30.00 in 10.0 mi SE 3.5 mph - N/A   Clear
3:15 AM 64.4 °F - 59.0 °F 83% 30.00 in 10.0 mi SE 4.6 mph - N/A   Clear
3:35 AM 64.4 °F - 59.0 °F 83% 30.00 in 10.0 mi SSE 4.6 mph - N/A   Clear
3:55 AM 64.4 °F - 59.0 °F 83% 30.01 in 10.0 mi SSE 3.5 mph - N/A   Clear
4:15 AM 62.6 °F - 59.0 °F 88% 30.01 in 10.0 mi SSE 3.5 mph - N/A   Clear
4:35 AM 64.4 °F - 59.0 °F 83% 30.00 in 10.0 mi SE 3.5 mph - N/A   Clear
4:55 AM 62.6 °F - 59.0 °F 88% 30.00 in 10.0 mi SSE 5.8 mph - N/A   Clear
5:15 AM 64.4 °F - 59.0 °F 83% 29.99 in 10.0 mi SE 5.8 mph - N/A   Clear
5:35 AM 64.4 °F - 59.0 °F 83% 29.99 in 10.0 mi SE 4.6 mph - N/A   Clear
5:55 AM 64.4 °F - 59.0 °F 83% 29.98 in 10.0 mi SE 5.8 mph - N/A   Clear
6:15 AM 62.6 °F - 59.0 °F 88% 30.00 in 10.0 mi ESE 3.5 mph - N/A   Clear
6:35 AM 62.6 °F - 59.0 °F 88% 30.00 in 10.0 mi Calm Calm - N/A   Clear
6:55 AM 64.4 °F - 60.8 °F 88% 30.00 in 10.0 mi ESE 3.5 mph - N/A   Clear
7:15 AM 64.4 °F - 60.8 °F 88% 30.00 in 10.0 mi SE 3.5 mph - N/A   Clear
7:55 AM 68.0 °F - 62.6 °F 83% 29.99 in 10.0 mi SE 4.6 mph - N/A   Clear
8:15 AM 69.8 °F - 62.6 °F 78% 29.99 in 10.0 mi ESE 4.6 mph - N/A   Clear
8:35 AM 69.8 °F - 62.6 °F 78% 29.99 in 10.0 mi ESE 4.6 mph - N/A   Clear
8:55 AM 71.6 °F - 62.6 °F 73% 30.00 in 10.0 mi SSE 3.5 mph - N/A   Clear
9:15 AM 71.6 °F - 62.6 °F 73% 30.00 in 10.0 mi SSE 8.1 mph - N/A   Clear
9:35 AM 73.4 °F - 62.6 °F 69% 29.99 in 10.0 mi SSE 9.2 mph - N/A   Clear
9:55 AM 75.2 °F - 62.6 °F 65% 29.98 in 10.0 mi SSE 8.1 mph - N/A   Clear
10:15 AM 77.0 °F - 62.6 °F 61% 29.98 in 10.0 mi South 9.2 mph - N/A   Clear
10:35 AM 77.0 °F - 62.6 °F 61% 29.97 in 10.0 mi South 6.9 mph - N/A   Clear
10:55 AM 77.0 °F - 62.6 °F 61% 29.96 in 10.0 mi South 6.9 mph - N/A   Clear
11:15 AM 77.0 °F - 62.6 °F 61% 29.96 in 10.0 mi SSE 9.2 mph - N/A   Clear
11:35 AM 78.8 °F - 62.6 °F 57% 29.96 in 10.0 mi SSE 12.7 mph 17.3 mph N/A   Clear
11:55 AM 78.8 °F - 62.6 °F 57% 29.95 in 10.0 mi South 9.2 mph 17.3 mph N/A   Clear
12:15 PM 78.8 °F - 60.8 °F 54% 29.94 in 10.0 mi South 8.1 mph 17.3 mph N/A   Clear
12:35 PM 78.8 °F - 60.8 °F 54% 29.93 in 10.0 mi South 8.1 mph - N/A   Clear
12:55 PM 80.6 °F 81.8 °F 62.6 °F 54% 29.93 in 10.0 mi South 9.2 mph - N/A   Clear
1:15 PM 80.6 °F 81.8 °F 62.6 °F 54% 29.92 in 10.0 mi South 8.1 mph - N/A   Clear
1:35 PM 82.4 °F 83.4 °F 62.6 °F 51% 29.91 in 10.0 mi SE 8.1 mph - N/A   Clear
1:55 PM 82.4 °F 83.4 °F 62.6 °F 51% 29.90 in 10.0 mi South 10.4 mph - N/A   Clear
2:15 PM 82.4 °F 82.9 °F 60.8 °F 48% 29.89 in 10.0 mi South 11.5 mph 16.1 mph N/A   Clear
2:35 PM 82.4 °F 82.9 °F 60.8 °F 48% 29.88 in 10.0 mi SSE 8.1 mph - N/A   Clear
2:55 PM 84.2 °F 85.0 °F 62.6 °F 48% 29.87 in 10.0 mi South 9.2 mph 17.3 mph N/A   Clear
3:15 PM 84.2 °F 84.4 °F 60.8 °F 45% 29.87 in 10.0 mi South 12.7 mph 19.6 mph N/A   Clear
3:35 PM 84.2 °F 84.4 °F 60.8 °F 45% 29.87 in 10.0 mi South 11.5 mph 16.1 mph N/A   Clear
3:55 PM 84.2 °F 84.4 °F 60.8 °F 45% 29.86 in 10.0 mi South 9.2 mph 18.4 mph N/A   Scattered Clouds
4:15 PM 86.0 °F 86.1 °F 60.8 °F 43% 29.86 in 10.0 mi South 8.1 mph 18.4 mph N/A   Scattered Clouds
4:35 PM 84.2 °F 84.4 °F 60.8 °F 45% 29.84 in 10.0 mi SSE 12.7 mph 20.7 mph N/A   Clear
4:55 PM 84.2 °F 84.4 °F 60.8 °F 45% 29.84 in 10.0 mi South 13.8 mph 23.0 mph N/A   Clear
5:15 PM 84.2 °F 84.4 °F 60.8 °F 45% 29.84 in 10.0 mi South 12.7 mph 20.7 mph N/A   Clear
5:35 PM 82.4 °F 82.9 °F 60.8 °F 48% 29.83 in 10.0 mi SSE 8.1 mph 16.1 mph N/A   Clear
5:55 PM 80.6 °F 81.5 °F 60.8 °F 51% 29.82 in 10.0 mi SSE 5.8 mph - N/A   Clear
6:15 PM 80.6 °F 81.5 °F 60.8 °F 51% 29.81 in 10.0 mi SSE 8.1 mph - N/A   Clear
6:35 PM 80.6 °F 81.5 °F 60.8 °F 51% 29.81 in 10.0 mi SSE 6.9 mph - N/A   Clear
6:55 PM 80.6 °F 81.5 °F 60.8 °F 51% 29.81 in 10.0 mi SSE 8.1 mph - N/A   Clear
7:15 PM 80.6 °F 81.5 °F 60.8 °F 51% 29.82 in 10.0 mi SSE 5.8 mph - N/A   Clear
7:35 PM 78.8 °F - 60.8 °F 54% 29.81 in 10.0 mi SSE 5.8 mph - N/A   Clear
7:55 PM 78.8 °F - 60.8 °F 54% 29.81 in 10.0 mi SSE 5.8 mph - N/A   Clear
8:15 PM 78.8 °F - 60.8 °F 54% 29.81 in 10.0 mi SSE 6.9 mph - N/A   Clear
8:35 PM 78.8 °F - 60.8 °F 54% 29.81 in 10.0 mi SSE 6.9 mph - N/A   Clear
8:55 PM 77.0 °F - 60.8 °F 57% 29.81 in 10.0 mi SSE 6.9 mph - N/A   Clear
9:15 PM 77.0 °F - 60.8 °F 57% 29.80 in 10.0 mi SSE 5.8 mph - N/A   Clear
9:35 PM 77.0 °F - 60.8 °F 57% 29.80 in 10.0 mi SSE 4.6 mph - N/A   Clear
9:55 PM 75.2 °F - 60.8 °F 61% 29.80 in 10.0 mi SSE 6.9 mph - N/A   Clear
10:15 PM 77.0 °F - 60.8 °F 57% 29.80 in 10.0 mi South 6.9 mph - N/A   Scattered Clouds
10:35 PM 77.0 °F - 60.8 °F 57% 29.80 in 10.0 mi SSE 10.4 mph 21.9 mph N/A   Mostly Cloudy
10:55 PM 77.0 °F - 60.8 °F 57% 29.80 in 10.0 mi South 10.4 mph 19.6 mph N/A   Overcast
11:15 PM 77.0 °F - 60.8 °F 57% 29.80 in 10.0 mi South 9.2 mph 19.6 mph N/A   Overcast
11:35 PM 77.0 °F - 60.8 °F 57% 29.80 in 10.0 mi South 10.4 mph 17.3 mph N/A   Overcast
11:55 PM 77.0 °F - 60.8 °F 57% 29.80 in 10.0 mi South 9.2 mph - N/A   Overcast